This demonstration page uses our WeatherBlox Daily Observations layout. Learn more.

Left ArrowRight Arrow

38.20091, -84.87328

Hourly Observations for January 8, 2015

Temp ( °F °C ) Dew Point ( °F °C ) Humidity (%) Winds ( mph kmh ) Pressure ( in mb ) Visibility ( mi km ) Precip ( " mm )
12:53 am 00:53 Clear 2 -16.7 -7 -21.7 65 65 W 3 6 30.79 1043 10 16 0.00 0.00
1:53 am 01:53 Clear 2 -16.7 -8 -22.2 63 63 W 3 6 30.77 1042 10 16 0.00 0.00
2:53 am 02:53 Clear 1 -17.2 -7 -21.7 68 68 WNW 5 7 30.76 1042 10 16 0.00 0.00
3:53 am 03:53 Clear 1 -17.2 -6 -21.1 72 72 VRB 3 6 30.75 1041 10 16 0.00 0.00
4:53 am 04:53 Clear 0 -17.8 -7 -21.7 72 72 WNW 3 6 30.73 1041 10 16 0.00 0.00
5:53 am 05:53 Clear 0 -17.8 -7 -21.7 72 72 WNW 3 6 30.71 1040 10 16 0.00 0.00
6:53 am 06:53 Clear -1 -18.3 -7 -21.7 75 75 Calm 30.71 1040 10 16 0.00 0.00
7:53 am 07:53 Clear 0 -17.8 -6 -21.1 76 76 SSE 6 9 30.67 1039 10 16 0.00 0.00
8:53 am 08:53 Sunny 1 -17.2 -5 -20.6 75 75 SSW 8 13 30.68 1039 10 16 0.00 0.00
9:53 am 09:53 Sunny 3 -16.1 -4 -20 72 72 SSE 9 15 30.64 1038 10 16 0.00 0.00
10:53 am 10:53 Sunny 7 -13.9 -3 -19.4 63 63 S 9 15 30.62 1037 10 16 0.00 0.00
11:53 am 11:53 Sunny 10 -12.2 -2 -18.9 58 58 SSW 10 17 30.56 1035 10 16 0.00 0.00
12:53 pm 12:53 Sunny 14 -10 -3 -19.4 47 47 SSW 9 15 30.48 1032 10 16 0.00 0.00
1:53 pm 13:53 Sunny 15 -9.4 -4 -20 42 42 SSW 10 17 30.42 1030 10 16 0.00 0.00
2:53 pm 14:53 Sunny 16 -8.9 -2 -18.9 45 45 S 10 17 30.38 1029 10 16 0.00 0.00
3:53 pm 15:53 Sunny 18 -7.8 -1 -18.3 43 43 S 10 17 30.33 1027 10 16 0.00 0.00
4:53 pm 16:53 Sunny 19 -7.2 -2 -18.9 39 39 SSW 15 24 30.30 1026 10 16 0.00 0.00
5:53 pm 17:53 Mostly Clear 19 -7.2 0 -17.8 43 43 SSW 8 13 30.25 1025 10 16 0.00 0.00
6:53 pm 18:53 Mostly Cloudy 20 -6.7 0 -17.8 41 41 S 10 17 30.19 1022 10 16 0.00 0.00
7:53 pm 19:53 Cloudy 22 -5.6 0 -17.8 38 38 SSW 16 26 30.16 1021 10 16 0.00 0.00
8:53 pm 20:53 Cloudy 24 -4.4 1 -17.2 36 36 SSW 16 26 30.14 1021 10 16 0.00 0.00
9:53 pm 21:53 Cloudy 25 -3.9 1 -17.2 35 35 SW 17 28 30.14 1021 10 16 0.00 0.00
10:53 pm 22:53 Cloudy 27 -2.8 -1 -18.3 29 29 SW 21 33 30.12 1020 10 16 0.00 0.00
11:53 pm 23:53 Cloudy 27 -2.8 -1 -18.3 29 29 SW 24 39 30.12 1020 10 16 0.00 0.00

Powered by AerisWeather